Tracking 19570 objects as of 21-Feb-2019
HD Live streaming from Space Station
objects crossing your sky now

OV1-9

Track OV1-9 now!
10-day predictions
OV1-9 is classified as:


NORAD ID: 2610
Int'l Code: 1966-111A
Perigee: 481.1 km
Apogee: 4,546.9 km
Inclination: 99.1 °
Period: 138.9 minutes
Semi major axis: 8885 km
RCS: 0.6636 m2 (medium)
Launch date: December 11, 1966
Source: United States (US)
Launch site: AIR FORCE WESTERN TEST RANGE (AFWTR)
aabbcc
Your satellite tracking list
Your tracking list is empty




NASA's NSSDC Master Catalog

Two Line Element Set (TLE):
1  2610U 66111A   19051.64665227 +.00000119 +00000-0 +51608-4 0  9993
2  2610 099.1182 303.6022 2287998 131.2830 250.9117 10.36609620955748
Source of the keplerian elements: AFSPC